User: anonymous   Login
Location: Caltech
(34.1382°N, 118.1253°W)
Time: 20:57:12
(UTC-08:00)
Language:

NOSS 3-2 (A) - Orbit

View from above orbital plane
View from above orbital plane
View from above satellite
View from above satellite

Ground track
Ground track

The orbit data is extracted from the following two-line orbital elements,

1 28095U 03054A   16340.22701659 0.00000010  00000-0  13995-4 0    07
2 28095  63.4244  87.3782 0291000 358.1666   1.8334 13.41343470    00
Epoch (UTC): 05 December 2016 05:26:54
Eccentricity: 0.0291000
inclination: 63.4244°
perigee height: 886 km
apogee height: 1322 km
right ascension of ascending node: 87.3782°
argument of perigee: 358.1666°
revolutions per day: 13.41343470
mean anomaly at epoch: 1.8334°
orbit number at epoch: 0

The dashed part of the orbit path shows where the satellite is in the earth's shadow,  

DLR